CAPE
1850 2125 1991 1927 2050 2065 1987 2032 1998 1922 1950 2016 1946 1920 1971 1987 1875 1850 2050 2016 2046 2244 2494 2581 2697 2747 2647 2806 2729 3008 3387 3408 3529 3701 3518 3106 2785 2830 2851 2876 2799 2904 3075 3196 3123 3428 3719 3878 3840 3826 3560 3209 2948 2621 2470 2449 2354 2190 1983 1660 1396 1506 1322 1371 1272 1278 1484 1446 1120 916 960 1080 966 1444 1300 1380 1585 1632 981 1372 1664 1514 1421 1382 1320
1935 2078 1975 2006 2041 2065 1958 1930 1945 1912 1908 1890 1969 1944 1980 2006 2038 1996 2019 2020 2013 2025 2324 2429 2615 2676 2566 2750 2914 3016 3392 3613 3479 3578 3570 3299 2946 2667 2698 2868 2888 2855 3064 3163 3444 3480 3466 3834 3929 3886 3802 3393 3138 2952 2773 2392 2347 2311 2273 2138 1881 1588 1422 1318 1401 1311 1204 1602 1779 1520 1232 1210 902 1601 1206 1175 1201 1571 1739 1512 1514 1609 1611 1446 1327
1760 2067 2119 2178 2209 2094 1974 2021 2009 1977 1888 1884 1858 1803 1903 1984 1995 2022 1832 1791 1951 1910 2122 2156 2532 2720 2612 2673 3014 2994 3313 3362 3344 3431 3533 3553 3395 3129 3004 3034 2992 3041 3172 3354 3619 3794 3589 3707 3812 3839 3711 3472 3343 3166 2943 2728 2482 2294 2216 2150 2159 2081 1903 1476 1286 1364 1375 1435 1617 1368 1202 1698 1377 1285 1648 1471 1264 1465 1524 1500 1280 1324 1419 1376 1224
1702 2075 2106 2065 2084 2144 2136 2074 1914 1911 1849 1833 1831 1768 1762 1867 1979 1924 1826 1752 1847 1923 1966 2110 2490 2868 2679 2756 2946 3003 3140 3154 3200 3319 3499 3590 3583 3535 3505 3545 3548 3486 3565 3697 3825 4005 3872 3857 3770 3630 3676 3619 3589 3487 3270 3012 2852 2745 2615 2567 2425 2200 2138 2113 2046 1627 1405 1463 1700 1743 1584 1497 1493 1666 1502 1390 1174 1251 1427 1322 1380 1259 1191 1259 1286
1735 1920 1888 1889 1943 2104 2076 2010 1961 1926 1848 1820 1858 1805 1764 1774 1869 1802 1785 1749 1831 1931 2040 2141 2435 2699 2512 2626 2832 2884 2991 3073 3198 3126 3223 3356 3502 3430 3599 3736 3806 3744 3727 3887 3879 3936 3933 3764 3680 3774 3793 3683 3701 3650 3510 3382 3091 2846 2796 2744 2654 2520 2262 2043 1986 1931 1899 1791 1740 1938 1999 1874 1638 1420 1369 1268 1272 1534 1747 1601 1375 1449 1591 1258 924
1725 1855 1823 1786 1914 1996 2084 1978 1914 1914 1868 1855 1860 1862 1807 1784 1822 1818 1778 1797 1860 1890 2086 2108 2203 2494 2484 2525 2707 2880 2951 3064 3136 3092 2942 3050 3291 3373 3439 3741 3685 3752 3812 3838 3910 3859 3777 3786 3712 3724 3761 3721 3610 3614 3672 3595 3346 3087 2940 2829 2732 2633 2526 2430 2292 2126 1954 1819 1946 2018 2117 1994 1913 2022 1914 1652 1275 1152 1291 1750 1928 1501 1428 1334 944
1851 1794 1798 1773 1974 2023 2032 2010 2026 1925 1952 1898 1909 1925 1863 1804 1784 1829 1810 1841 1876 1910 1995 2251 2255 2332 2503 2537 2526 2737 2931 2912 3081 3129 3022 3046 3240 3407 3273 3473 3564 3613 3708 3652 3595 3671 3690 3679 3696 3714 3731 3726 3641 3626 3671 3453 3109 3130 3221 3107 2956 2813 2709 2630 2483 2366 2272 2211 2194 2151 2107 2006 1868 1828 1810 1881 1466 1192 1113 1169 1354 1734 2071 1525 1405
1898 1946 1896 1934 2061 2047 2054 2140 2159 2104 2042 2104 2088 1988 1957 1887 1896 1872 1950 1927 1896 1949 1984 2181 2372 2290 2373 2475 2550 2628 2854 2869 2996 3103 3077 3022 3155 3244 3289 3263 3345 3460 3527 3598 3458 3383 3507 3610 3459 3530 3691 3767 3711 3691 3638 3610 3505 3295 3371 3282 3102 2663 2667 2612 2318 2310 2356 2248 2130 2122 2166 2234 2242 1966 1547 1452 1239 1271 1283 1149 1208 1319 1369 2040 1773
1968 1941 1987 2041 2217 2215 2200 2200 2269 2282 2189 2269 2205 2124 2094 2079 2028 2021 2079 2044 1994 2027 2018 2037 2211 2252 2226 2360 2446 2505 2567 2650 2704 2886 2957 3065 3060 3021 3104 3205 3238 3291 3428 3425 3481 3574 3452 3405 3431 3386 3456 3561 3159 3094 3155 3187 3401 3407 3497 3159 2737 2691 2543 2473 2335 2375 2280 2184 2104 2008 1937 2172 2070 1942 1849 1822 1739 1606 1597 1818 1656 1377 1443 1362 1450
2107 1985 2014 2149 2332 2334 2392 2390 2445 2472 2378 2476 2468 2296 2200 2225 2168 2194 2227 2154 2155 2130 2119 2121 2098 2170 2245 2376 2472 2476 2454 2478 2457 2162 2346 2820 3040 2869 2921 3105 3234 3204 3332 3443 3388 3403 3488 3436 3312 3234 2936 2803 2650 2535 2414 2342 2310 2614 3213 3484 3288 3094 2880 2720 2541 2526 2522 2459 2226 1991 2123 2074 2370 2304 2124 2010 1947 1891 1670 1778 1960 2045 1931 1839 1751
2087 2005 2136 2244 2387 2511 2702 2610 2550 2489 2454 2470 2488 2455 2363 2310 2283 2325 2248 2242 2155 2286 2255 2188 2118 2096 2154 2256 2385 2392 2456 2430 2143 1907 1778 1814 2406 2946 3001 3158 3296 3307 3225 3394 3447 3311 3405 3452 3511 3409 2883 2460 2342 2317 2322 2247 2236 2246 2201 2185 2368 2975 2882 2849 2928 2816 2688 2538 2423 2430 2333 2089 2451 2506 2225 1836 1888 2154 2408 2475 2434 2281 2021 1926 1694
2005 2121 2106 2322 2511 2658 2507 2496 2459 2492 2511 2475 2477 2432 2369 2319 2338 2366 2289 2247 2350 2235 2260 2197 2289 2132 2107 2175 2209 2309 2408 2146 1975 1813 1674 1596 1616 2367 2742 2940 2937 3100 3200 3125 3199 3288 3321 3252 3314 3358 3396 3436 3340 3296 2588 2234 2198 2208 2196 2197 2213 2221 2211 2454 2694 2826 2865 2843 2813 2829 2700 2628 2440 2521 2455 2255 2593 2643 2285 2354 2130 2029 1787 1725 1514
1978 2214 2219 2490 2756 2626 2541 2598 2553 2524 2498 2496 2466 2458 2427 2387 2348 2300 2213 2242 2257 2362 2282 2198 2282 2251 2176 2318 2231 2213 2303 2029 1832 1694 1634 1576 1584 1668 2304 2654 2740 2884 2965 3131 3101 3191 3314 3275 3192 3204 3375 2882 2848 3070 3430 3603 2806 2399 2228 2190 2170 2186 2211 2235 2235 2276 2772 2536 2847 2906 2904 2645 2693 2551 2494 2745 2790 2438 2452 2035 2049 1902 1760 1688 1598
2088 2302 2291 2480 2659 2664 2728 2598 2530 2541 2548 2500 2508 2468 2414 2412 2323 2235 2164 2238 2340 2367 2254 2282 2316 2424 2352 2366 2493 2372 2286 2126 1859 1669 1564 1544 1574 1595 2122 2368 2644 2820 2948 3019 3096 3124 3245 3302 3277 3299 3332 3413 3347 3188 3281 3475 3632 3676 3335 2633 2339 2219 2194 2246 2276 2262 2252 2277 2463 2724 2923 3125 3175 3188 2835 2754 2718 2912 2569 2244 2120 2168 2082 1945 1854
2291 2342 2520 2673 2684 2679 2688 2614 2637 2639 2627 2554 2523 2497 2438 2444 2356 2236 2147 2209 2406 2445 2332 2296 2310 2378 2313 2254 2339 2361 2213 2027 1935 1735 1592 1537 1534 1572 1901 2309 2516 2784 2937 3061 3140 3092 3136 3274 3353 3263 3298 3479 3543 3498 3435 3482 3665 3678 3647 3647 3512 3210 2980 2557 2354 2298 2299 2320 2360 2361 2612 2765 2946 3106 2703 2772 2769 2725 2480 2094 2142 2146 2086 2096 2059
2514 2424 2453 2387 2519 2586 2609 2707 2712 2730 2684 2609 2561 2528 2541 2572 2538 2409 2263 2212 2280 2304 2368 2270 2324 2399 2348 2293 2169 2178 2142 1690 1651 1644 1604 1563 1546 1576 1605 2268 2513 2634 2846 3038 3132 3234 3238 3253 3331 3390 3392 3350 3297 2959 2876 3241 3441 3474 3348 3432 3528 3416 3183 2807 2716 2650 2551 2414 2449 2548 2630 2670 2672 2694 2749 2742 2786 2692 2290 2071 2128 2179 2240 2254 2228
2278 2496 2542 2386 2390 2448 2454 2581 2689 2728 2726 2688 2628 2569 2605 2680 2656 2568 2452 2310 2259 2331 2397 2371 2416 2424 2450 2396 2328 2306 2257 1932 1514 1367 1339 1390 1440 1498 1653 2113 2471 2674 2792 2938 3106 3153 3252 3331 3359 3278 3233 3440 3304 2936 2628 2430 3069 3169 3319 3330 3476 3584 3408 3353 2951 2871 2860 2733 2674 2706 2731 2740 2776 2747 2727 2626 2586 2499 2543 2463 2446 2455 2368 2377 2416
2418 2646 2365 2361 2391 2454 2538 2617 2724 2717 2780 2798 2766 2697 2667 2679 2648 2621 2544 2384 2301 2408 2456 2523 2504 2508 2453 2488 2411 2451 2374 2238 1758 1512 1376 1306 1248 1448 1996 2229 2483 2613 2735 2901 3022 3143 3203 2785 3017 3218 3283 3302 3059 2855 2598 2406 2712 3120 3303 3351 3418 3488 3534 3198 3326 3083 3096 2894 2793 2815 2792 2770 2674 2599 2540 2596 2597 2564 2589 2627 2589 2508 2426 2527 2561
2511 2562 2457 2447 2604 2701 2732 2756 2797 2828 2914 2870 2763 2757 2734 2762 2660 2632 2568 2498 2478 2569 2523 2554 2611 2631 2523 2468 2254 2203 2435 2298 2004 1951 1844 1723 1604 1627 1969 2135 2286 2485 2508 2678 2893 2990 3071 2826 2333 2470 2757 2997 2823 2678 2516 2327 2756 3095 3273 3465 3344 3349 2989 3276 3421 3681 3561 3016 2894 2743 2634 2616 2578 2562 2641 2642 2568 2594 2596 2580 2642 2555 2592 2523 2471
2584 2632 2621 2682 2897 3009 2857 2938 2906 2863 3008 2944 2819 2855 2864 2733 2780 2790 2709 2615 2652 2663 2671 2652 2696 2728 2689 2574 2376 2343 2334 2451 2314 2269 2213 2141 2043 1940 1880 2122 2213 2320 2472 2396 2623 2842 2893 3021 2904 2168 1982 1887 1966 2096 2188 2193 2473 3066 3221 3138 3132 2850 3261 3508 3672 3810 3544 2933 2779 2603 2565 2620 2553 2348 2324 2446 2517 2526 2350 2249 2137 2103 1944 2000 2001
3074 3091 3042 2943 3010 3017 2825 3000 3031 3068 3110 3120 2914 2844 2894 2927 2885 2945 2824 2712 2786 2908 2872 2818 2601 2808 2582 2631 2655 2659 2647 2612 2810 2575 2513 2432 2332 2230 2146 2139 2165 2302 2457 2460 2448 2503 2685 2853 2877 2547 2144 1908 1775 1691 1784 1979 2187 2515 2965 3215 3298 3321 3470 3519 3461 3108 3002 2887 2757 2658 2529 2264 2273 2434 2549 2449 2133 1960 1773 1559 1533 1519 1500 1611 1751
3485 3623 3646 3281 3060 3154 3216 3292 3238 3269 3317 3256 3293 3214 3180 3107 3084 3087 2912 2982 3045 3129 3137 2814 2772 2802 2836 2869 2890 2910 2921 2903 2910 2892 2860 2764 2674 2562 2442 2326 2157 2287 2441 2582 2532 2503 2583 2704 3115 2873 2296 2058 1785 1953 2157 2308 2528 2642 2761 2802 2951 3022 3096 3372 3246 3072 2925 2848 2432 1997 1949 2467 2753 2644 2356 2087 1903 1670 1311 1399 1303 1624 2040 1946 1703
3481 3585 3564 3372 3432 3471 3529 3533 3514 3511 3520 3463 3530 3476 3494 3411 3407 3458 3386 3318 3369 3359 3439 3306 3022 2939 3156 2993 3006 3020 3032 3047 3048 3075 3084 3036 2970 2878 2746 2594 2402 2208 2293 2556 2661 2625 2758 2952 3036 2634 2305 2079 2132 2342 2487 2610 2750 2836 2878 2941 3048 3198 3420 3531 3597 3469 2999 2376 2038 2190 2628 2708 2608 2399 2178 1889 1505 923 837 942 1157 1558 1807 1751 1791
3807 3649 3747 3747 3854 3753 3764 3765 3792 3696 3795 3767 3706 3704 3736 3730 3710 3752 3715 3576 3574 3571 3419 3337 3043 3063 3090 3091 3099 3267 3152 3172 3168 3173 3161 3118 3087 3007 2904 2780 2588 2408 2252 2259 2511 2682 2768 3031 3436 2628 2195 2324 2506 2642 2767 2869 2960 3017 3034 3063 3179 3355 3548 3536 3156 2424 2233 2475 2718 2733 2560 2312 2170 2072 1725 1058 681 655 714 784 826 803 1028 975 1057
4022 3921 3746 3805 3960 3820 3952 3946 3954 3986 3938 3888 3906 3945 4026 3969 3963 3952 3892 3716 3636 3536 3529 3317 3327 3196 3229 3226 3258 3305 3264 3277 3303 3264 3235 3168 3104 3023 2947 2850 2714 2560 2430 2410 2384 2367 2984 2477 2473 2447 2472 2627 2771 2919 3006 3050 3044 3027 3067 3152 3208 3454 3369 2732 2637 2389 2770 2733 2605 2398 2196 2090 1881 1423 628 641 512 334 512 504 553 516 417 360 370
4222 3960 3857 3944 4158 4142 4331 4200 4218 4085 4124 4086 4156 4230 4102 4054 4014 4228 4007 3766 3723 3630 3756 3536 3341 3327 3327 3562 3387 3686 3608 3457 3380 3337 3294 3226 3112 3022 2954 2904 2814 2695 2641 2618 2586 2601 2643 2684 2748 2795 2817 2883 3006 3033 3008 2975 2937 2964 3080 3212 3324 2997 1984 1704 1726 2130 2206 2191 2094 2037 1852 1071 703 560 454 492 458 354 280 200 99 112 149 138 62
4933 4748 4476 4170 4183 4095 4147 4020 4122 4178 4332 4267 4280 4386 4258 4244 4126 4287 4179 3935 3868 3781 3549 3491 3433 3423 3432 3674 3884 3754 3773 3720 3514 3353 3328 3267 3168 3092 3052 3012 2927 2865 2848 2837 2853 2927 3014 3047 3038 2995 3030 3044 3089 3096 3034 3014 3080 3161 3277 3407 3408 3273 2710 2313 2237 2334 1997 1883 1563 757 694 488 348 296 292 265 286 272 91 4 2 0 0 0 0
4975 5020 4981 4885 4728 4651 4552 4180 4266 4318 4474 4417 4375 4344 4370 4396 4443 4492 4279 4132 4148 3930 3908 3647 3522 3654 3816 3802 3917 3864 3778 3808 3692 3338 3327 3286 3240 3222 3208 3161 3104 3071 3083 3153 3193 3177 3172 3174 3219 3219 3185 3187 3162 3181 3177 3099 3139 3199 3342 3548 3149 2756 2941 2761 2398 2066 1756 892 512 370 225 159 131 46 8 7 8 0 0 0 1 0 0 0 0
4707 5254 5504 5292 5077 4827 4456 4107 4110 4253 4563 4208 4174 4291 4433 5055 4752 4694 4529 4485 4425 4512 4396 3939 3950 3921 3992 3916 3853 3985 3784 3757 3858 3371 3372 3371 3370 3366 3355 3340 3320 3357 3363 3358 3341 3407 3404 3412 3326 3308 3325 3395 3390 3328 3301 3256 3289 3499 3720 3272 2823 2589 2450 2401 2134 2138 1575 252 65 1 0 0 0 0 0 0 0 0 0 0 0 0 0 0 0
4775 4950 4941 4955 4657 4549 4364 4200 4196 3868 3456 3460 3602 3704 3816 4008 4038 4161 4139 3769 3716 3662 3616 4032 3806 3950 3892 3948 3660 3798 3894 4045 3517 3596 3608 3594 3584 3532 3499 3480 3500 3534 3596 3634 3665 3621 3624 3579 3567 3579 3593 3602 3625 3461 3442 3552 3772 3686 3366 3083 2921 2366 2067 2370 2187 1592 536 0 0 0 0 0 0 0 0 0 0 0 0 0 0 0 0 0 0
4981 4998 5030 4950 4574 4260 4102 4343 4082 3929 3670 3554 3442 3344 3363 3480 3557 3632 3620 3662 3618 3576 3592 3563 3515 3476 3480 3881 3662 3666 3692 3740 3776 3736 3713 3747 3782 3777 3762 3781 3820 3871 3912 3894 3821 3724 3774 3807 3788 3859 3863 3678 3652 3749 3841 3740 3534 3198 3065 2918 2150 2464 2154 1579 1179 285 0 0 0 0 0 0 0 0 0 0 0 0 0 0 0 0 0 0 0
5074 5144 5326 5090 4303 4400 3994 3772 3854 3786 3760 3660 3638 3445 3363 3311 3331 3403 3503 3526 3507 3594 3596 3585 3552 3542 3684 3777 3919 3987 3962 3950 3963 3960 3934 3935 3926 3951 3970 4007 4029 4040 4104 4057 3935 3885 3916 3743 3889 3882 3829 3851 3752 3644 3520 3392 3118 2667 2075 1812 1785 1800 1571 914 0 0 0 0 0 0 0 0 0 0 0 0 0 0 0 0 0 0 0 0 0
4632 4727 4584 4427 4271 4187 3997 3739 3569 3498 3474 3397 3292 3300 3276 3217 3240 3268 3398 3459 3552 3632 3648 3635 3681 3807 3954 4019 4022 4045 4068 4080 4211 4290 4371 4393 4334 4284 4273 4298 4322 4243 4065 3902 3893 4171 4044 4002 4067 3997 3950 3957 3911 3603 3255 2963 2538 2199 1824 1810 1874 1253 437 0 0 0 0 0 0 0 0 0 0 0 0 0 0 0 0 0 0 0 1 1 0
4219 4312 4411 4581 4474 4312 4119 3843 3668 3442 3357 3266 3168 3168 3155 3174 3165 3210 3278 3414 3558 3706 3746 3888 4027 4116 4194 4206 4182 4194 4217 4203 4331 4409 4478 4520 4528 4522 4627 4640 4577 4504 4231 4089 4043 4056 4138 4201 4023 3841 3701 3500 3124 2696 2359 1854 1380 1359 1482 1543 1272 676 0 0 0 0 0 0 0 0 0 0 0 0 0 0 0 0 0 0 0 0 0 0 0
3852 4076 4554 4690 4781 4516 4289 4051 3908 3804 3656 3563 3439 3444 3451 3431 3454 3452 3441 3410 3515 3749 3874 4060 4264 4371 4478 4541 4509 4373 4339 4214 3984 3961 3930 3880 4033 4282 4309 4398 4275 3715 3708 3933 3959 3375 3554 3586 3197 2799 2339 2276 2242 1964 1772 1668 1463 1432 1372 1199 832 207 0 0 0 0 0 0 0 0 0 0 0 0 0 0 0 0 0 0 0 0 1 1 0
3785 4015 4302 4607 4806 4774 4548 4336 4196 4082 3933 3917 3850 3807 3810 3796 3791 3766 3741 3596 3558 3694 3782 4022 4262 4199 4298 4499 4460 4227 3877 3577 3712 3611 3329 3454 4156 3805 3746 1910 2648 3408 3439 3207 3089 2716 2333 2156 2227 2441 2411 2372 1987 1624 1562 1382 1635 1489 1320 1139 574 0 0 0 0 0 0 0 0 0 0 0 0 0 0 0 0 0 0 0 0 0 0 0 0
3546 3839 4202 4486 4722 4790 4790 4571 4406 4322 4220 4152 4072 4069 4161 4116 4012 3972 3947 3780 3509 3529 3494 3720 3788 3698 3641 3356 3287 3358 3374 3219 3046 2849 2782 3074 3575 3531 3099 2358 1813 2212 2503 2507 2387 2272 2214 2212 2254 2251 2194 2007 1821 1411 1274 1149 1154 1138 879 140 0 0 0 0 0 0 0 0 0 0 0 0 0 0 0 0 0 0 0 0 0 0 0 0 0
3386 3556 3826 4237 4267 4343 4482 4544 4524 4441 4383 4272 4157 4132 4185 4138 4022 3911 3910 3717 3647 3652 3596 3601 3634 3672 3512 3307 3058 3043 3031 2883 3003 2156 2574 2774 2852 3042 2731 2253 1649 1172 1334 1457 1561 1686 1757 1751 1682 1483 1413 1485 1294 649 0 0 0 0 0 0 0 0 0 0 0 0 0 0 0 0 0 0 0 0 0 0 0 0 0 0 0 0 0 0 0
2875 3276 3589 3795 3908 4081 4195 4395 4542 4662 4654 4595 4494 4366 4248 4132 4105 4036 3903 3800 3711 3636 3439 3322 3443 3447 3464 3528 3451 2877 2554 2401 2448 2660 2001 1526 1587 1702 1714 1662 1622 1482 1445 1396 1386 1310 1311 1288 1279 1304 1299 1180 748 2 2 1 0 0 0 0 0 0 0 0 0 0 0 0 0 0 0 0 0 0 0 0 0 0 0 0 0 0 0 0 0
2740 2853 3075 3302 3824 3877 3985 3988 4358 4470 4598 4722 4724 4602 4501 4315 4199 4091 3878 3609 3597 3320 2984 2882 2969 2986 3031 2946 3026 2745 2280 2218 2050 2034 2000 1924 1939 1887 1867 1809 1761 1700 1572 1558 1486 1388 1226 1050 828 413 4 2 2 1 2 1 1 1 0 0 0 0 0 0 0 0 0 0 0 0 0 0 0 0 0 0 0 0 0 0 0 0 0 0 0
2487 2643 2694 2856 3184 3704 3729 3962 4122 3968 3966 3982 3934 3968 3937 3698 3475 3229 3277 3372 3472 3405 3153 2780 2601 2407 2364 2451 2318 2015 2043 2100 2144 2197 2051 1908 1810 1750 1687 1598 1418 1381 1339 1191 1019 834 669 454 16 0 1 1 3 4 4 3 2 2 2 2 1 0 0 0 0 0 0 0 0 0 0 0 0 0 0 0 0 0 0 0 0 0 0 0 0
2000 2115 2443 2542 2739 3107 3467 3671 3780 3801 3832 3675 3540 3578 3619 3426 2987 2885 3067 2997 3024 3160 3312 2823 2502 2279 2087 1977 1889 1790 1900 1985 2068 2024 1941 1804 1769 1685 1357 1156 1031 1077 1018 792 607 394 121 2 1 1 1 0 0 1 2 2 2 2 2 2 1 0 0 0 0 0 0 0 0 0 0 0 0 0 0 0 0 0 0 0 0 0 0 0 0
1558 1840 2011 2154 2302 2400 2829 3193 3326 3336 3243 3154 3044 3118 3310 3194 2268 2434 2735 2691 2702 2752 2640 2261 1937 1684 1564 1487 1585 1599 1558 1711 1710 1885 1790 1699 1424 1230 1114 1046 1032 870 775 737 536 112 2 5 5 3 2 1 0 0 0 0 1 1 1 1 0 0 0 0 0 0 0 0 0 0 0 0 0 0 0 0 0 0 0 0 0 0 0 0 0
1134 1372 1491 1610 1937 2161 2363 2446 2552 2605 2665 2689 2663 2512 2546 2529 2491 2353 2195 2112 1923 1917 1905 1726 1582 1503 1382 1293 1233 1301 1226 984 860 894 817 903 929 905 923 842 641 597 525 312 0 1 2 1 3 5 3 1 1 1 2 2 2 1 1 1 0 0 0 0 0 0 0 0 0 0 0 0 0 0 0 0 0 0 0 0 0 0 0 0 0
917 991 1122 1306 1502 1722 1995 2059 2111 2156 2236 2232 2163 2021 1940 1909 1932 1836 1720 1666 1635 1579 1527 1479 1428 1390 1326 1226 1170 1034 906 863 781 596 613 492 326 321 295 124 33 0 0 0 0 0 0 1 0 1 2 2 4 4 6 5 4 2 2 0 0 0 0 0 0 0 0 0 0 0 0 0 0 1 2 1 0 0 0 0 0 0 0 0 0
815 888 959 1011 1132 1290 1496 1634 1734 1750 1717 1697 1605 1502 1525 1487 1484 1522 1461 1418 1403 1298 1273 1206 1123 1100 1041 950 903 850 675 600 561 236 0 0 0 0 0 0 0 0 0 0 0 0 0 4 0 0 0 1 0 0 0 1 4 2 2 3 3 1 0 0 0 0 0 0 0 0 0 0 0 0 0 0 1 1 1 0 0 0 0 0 0
840 840 855 905 1009 1120 1151 1209 1241 1214 1172 1125 1052 1013 1002 970 850 793 648 519 423 408 439 416 328 332 342 87 8 7 1 1 0 0 0 0 0 0 0 0 0 0 0 0 0 0 0 0 0 0 0 0 0 0 0 0 0 0 2 0 0 2 4 5 3 0 0 0 0 0 0 0 0 0 0 0 3 4 10 7 1 0 0 0 0
782 868 869 788 914 1007 1038 1065 1032 942 808 648 517 436 367 0 0 0 0 0 0 0 0 0 0 0 0 0 0 0 0 0 0 0 0 0 1 1 1 1 0 0 0 0 0 0 0 0 0 1 0 0 0 0 0 0 0 0 0 0 0 0 0 1 5 1 2 1 0 0 2 3 2 2 1 0 0 0 1 7 7 3 0 0 0
733 860 908 873 842 928 933 981 960 881 790 625 512 410 339 0 0 0 0 0 0 14 13 147 119 81 51 56 47 11 0 2 2 1 2 2 1 0 2 2 0 0 0 0 0 0 1 1 0 0 0 0 0 0 0 0 0 0 0 0 0 0 0 0 0 2 7 8 6 4 1 0 0 0 2 0 0 0 0 0 3 2 0 1 0
698 764 838 851 815 755 838 900 909 822 747 666 572 482 433 398 389 376 351 282 224 182 162 142 200 171 142 66 12 0 2 3 4 2 1 0 1 1 0 0 0 0 0 0 0 1 0 1 0 0 0 0 0 0 0 0 0 0 0 0 0 0 0 0 0 0 0 0 0 0 1 1 0 0 0 0 0 0 0 0 0 0 0 0 0
629 636 601 672 730 716 776 815 829 719 666 587 528 488 426 406 392 389 359 319 210 161 141 138 192 135 35 0 0 0 1 0 1 0 0 0 2 1 1 1 0 0 0 0 0 1 0 0 0 0 0 0 0 0 0 0 0 0 0 0 0 0 0 0 0 0 0 0 0 1 0 1 1 0 0 0 0 0 0 0 0 0 0 0 0
Wind_Speed
16 19 21 20 20 18 16 17 15 15 13 12 12 12 12 11 10 8 9 10 10 9 10 10 9 7 6 4 1 1 3 4 5 5 5 3 2 2 1 1 2 2 1 2 2 3 3 3 3 3 4 3 1 3 5 4 4 3 3 3 3 2 3 5 9 12 10 7 8 8 6 5 8 11 11 11 12 14 16 15 15 15 16 16 16
15 19 21 21 18 19 17 18 18 17 14 13 12 13 13 13 12 11 9 10 10 9 9 9 8 6 4 3 2 3 4 5 5 5 5 6 4 3 3 3 2 2 1 1 2 1 2 3 3 3 4 4 2 2 4 5 4 4 4 4 4 4 3 5 7 8 12 6 5 5 6 7 7 9 10 10 10 12 14 15 16 17 17 16 16
14 19 21 22 20 21 20 20 19 16 13 14 12 13 14 14 14 12 11 12 12 11 10 9 8 7 5 5 5 5 5 5 5 5 6 6 7 6 7 6 4 2 2 2 2 2 3 3 3 2 2 2 2 3 5 5 5 5 6 5 5 5 4 5 7 8 10 10 6 7 5 5 7 7 9 10 11 11 12 15 16 16 17 17 15
16 18 20 20 20 22 21 21 18 16 14 14 13 13 15 16 15 13 12 14 13 13 11 10 9 9 8 7 7 7 6 5 6 7 7 7 7 8 8 9 7 4 2 2 2 4 4 4 2 1 1 0 2 4 5 5 5 5 7 7 6 6 6 5 8 8 7 9 7 7 6 6 7 9 11 12 13 13 15 16 18 18 18 18 18
17 17 17 18 20 21 20 20 19 16 15 15 13 14 15 17 17 14 14 14 14 15 14 12 11 11 10 9 8 8 7 7 7 7 8 8 8 8 8 9 8 6 3 2 3 4 4 3 2 2 2 1 3 5 6 5 5 6 8 8 6 6 5 6 7 7 7 9 9 8 9 10 10 11 12 13 13 15 18 20 20 20 21 21 20
18 18 17 17 18 18 19 20 18 17 16 15 15 16 17 17 18 17 15 15 16 15 14 14 13 12 11 10 9 9 8 8 8 9 8 8 9 8 9 9 8 7 5 4 4 4 4 3 2 3 3 2 5 6 6 7 7 7 9 9 7 5 6 8 7 7 8 9 9 10 11 12 12 14 16 17 16 15 15 17 21 23 22 21 22
20 19 19 16 18 17 18 18 20 19 19 18 19 19 18 18 18 17 17 17 16 16 15 15 15 14 12 10 9 9 9 9 9 9 9 9 10 10 9 9 9 9 7 5 5 5 4 3 3 4 3 2 5 7 7 9 11 12 9 8 7 6 7 8 7 8 8 9 9 10 10 12 14 14 16 18 17 17 15 14 15 19 24 24 23
20 21 20 18 18 16 17 20 22 23 23 23 22 21 20 20 20 20 20 18 17 16 16 16 16 15 12 10 9 10 9 9 9 10 11 11 11 10 10 9 8 8 7 6 5 5 5 3 2 4 2 2 5 7 8 9 8 10 9 7 7 8 8 8 8 8 8 8 9 9 10 11 13 15 17 19 17 18 20 18 16 17 19 22 25
21 21 21 19 18 18 20 22 25 26 26 25 23 22 22 22 22 22 21 20 20 18 17 17 16 14 11 10 10 10 8 8 9 10 12 12 12 11 10 9 8 7 6 6 6 6 4 3 3 3 2 2 5 6 7 6 6 7 7 8 9 9 9 8 8 8 8 9 9 9 11 12 15 16 18 20 22 20 19 20 20 21 21 21 26
22 21 20 19 21 22 23 24 25 26 26 26 25 24 23 24 24 22 21 20 21 21 19 17 15 13 11 10 11 10 8 8 10 13 13 12 12 11 10 10 9 7 7 7 6 5 4 3 4 2 2 2 3 3 4 4 6 6 6 4 6 7 8 8 8 7 8 9 10 11 12 13 15 19 19 21 21 22 22 24 23 23 25 26 30
22 21 19 21 24 25 25 25 25 25 24 25 25 24 23 25 24 23 21 21 19 20 19 16 14 13 11 11 11 9 8 9 13 16 15 13 11 10 10 10 10 8 6 7 6 6 5 4 5 3 2 2 3 2 3 5 7 10 12 11 9 9 8 7 7 7 8 10 11 13 13 12 13 17 19 19 22 25 28 29 25 27 31 31 30
21 20 20 24 26 26 24 23 23 23 24 24 24 24 25 25 24 23 21 19 20 20 18 16 15 14 14 12 10 9 8 10 16 17 16 15 13 10 9 9 9 8 6 6 7 6 5 5 6 6 6 4 4 3 1 5 7 10 12 12 12 12 11 10 8 9 11 12 12 13 12 11 10 14 20 24 27 32 39 38 26 27 30 30 30
21 21 22 25 27 27 26 24 23 24 23 24 25 26 24 24 23 21 19 20 21 19 18 17 16 15 14 13 10 8 8 13 17 18 17 16 15 13 9 8 8 7 6 6 5 6 6 6 6 7 8 7 5 3 4 3 6 11 13 12 12 14 15 16 17 15 13 14 13 13 13 12 11 15 25 28 32 34 49 42 32 31 28 28 31
22 23 23 25 27 27 27 25 24 23 25 26 25 24 22 21 21 22 22 22 20 19 18 16 17 16 14 12 11 9 9 14 18 18 17 17 17 15 10 9 7 5 5 5 6 5 5 6 6 7 7 7 7 7 6 5 3 3 6 9 13 16 19 21 21 22 21 17 16 15 15 18 20 25 28 31 32 35 50 40 34 28 27 28 25
24 25 25 27 28 27 26 25 24 25 26 26 25 23 21 22 22 22 22 21 20 19 18 17 17 16 14 12 11 10 10 12 18 18 17 18 18 17 12 10 7 5 5 4 5 5 6 6 5 6 7 8 9 11 9 8 7 4 2 3 5 10 13 15 18 19 20 21 21 21 19 22 26 28 28 31 31 42 47 40 29 27 26 23 23
25 26 25 25 24 24 24 24 24 25 26 25 23 21 22 22 21 22 21 20 20 20 19 18 16 15 13 11 10 9 10 14 17 18 18 18 20 17 13 11 8 5 5 5 6 7 7 6 6 7 8 8 10 14 14 11 9 5 1 2 4 9 10 11 17 19 20 23 25 24 24 27 31 30 31 31 39 43 37 32 30 31 30 27 26
24 24 23 22 22 22 21 22 23 23 23 22 20 20 21 21 21 21 19 18 18 18 17 16 16 14 12 12 10 11 11 15 19 19 19 21 22 16 14 12 9 6 4 5 6 7 8 7 7 8 8 9 11 17 18 18 13 9 7 4 6 10 11 12 21 26 25 27 27 27 27 28 31 33 33 34 42 43 39 37 37 38 36 33 30
23 23 21 20 20 20 20 20 21 21 21 19 19 20 20 21 20 20 18 17 16 16 17 17 16 14 12 11 11 11 11 16 21 20 21 24 21 17 15 13 9 8 7 7 8 9 8 8 9 8 8 9 12 18 21 24 19 16 13 8 6 9 11 12 14 22 29 28 30 30 30 29 27 31 36 42 48 48 46 42 40 40 40 39 36
23 22 20 20 21 20 20 19 19 19 18 18 19 19 19 20 21 21 18 17 17 19 19 18 16 15 13 11 13 11 12 16 23 22 23 25 22 18 16 13 10 9 9 9 10 11 10 11 12 10 9 10 12 18 23 27 22 21 19 15 9 8 12 14 17 17 22 26 31 33 31 31 34 37 40 49 52 51 50 47 43 42 42 41 41
22 22 21 21 21 20 19 19 18 18 18 19 20 20 21 21 19 18 17 18 18 18 17 16 14 15 15 14 15 14 14 16 24 25 26 26 26 21 17 14 11 10 11 11 12 13 13 13 15 16 12 10 10 15 21 28 25 24 22 17 12 11 16 17 19 21 25 27 27 29 30 28 31 35 38 44 50 50 51 51 48 47 45 43 41
26 25 23 20 19 19 18 18 17 18 18 19 18 18 19 18 17 16 15 16 16 16 14 15 15 15 16 17 16 17 18 18 23 29 27 28 27 24 19 14 12 13 13 14 14 14 15 16 15 20 20 16 14 14 18 26 27 27 25 21 17 19 27 22 17 20 23 27 29 29 29 29 29 31 35 38 43 47 49 49 48 48 46 43 42
27 27 24 20 19 18 17 18 18 18 18 18 18 17 16 15 14 13 14 15 14 14 15 16 17 17 18 17 17 18 19 20 20 29 29 29 28 27 20 15 15 15 14 14 16 16 16 18 19 21 25 22 20 19 21 26 30 33 31 26 16 16 26 25 22 22 27 30 31 30 30 30 31 34 38 40 40 40 43 46 48 48 47 45 43
25 24 22 19 18 18 17 17 18 19 18 16 15 15 15 14 13 14 15 15 15 14 15 16 17 17 18 17 17 17 18 21 19 22 29 29 29 27 23 18 19 18 14 14 17 17 18 20 20 23 29 29 27 26 27 31 37 34 33 31 23 18 27 28 26 28 29 30 31 32 30 31 34 38 41 41 42 43 44 43 41 44 47 46 45
25 23 21 19 19 19 18 16 17 17 16 17 16 15 15 15 15 16 16 16 15 14 13 12 12 11 11 10 11 13 17 16 21 21 24 28 27 28 25 21 18 18 15 14 17 19 20 20 26 34 35 35 34 33 33 39 37 39 39 40 36 32 31 31 39 37 32 30 32 33 34 36 38 38 40 40 41 42 42 42 43 43 43 42 41
25 22 21 20 21 20 20 19 17 18 18 18 17 17 16 16 16 15 13 13 13 12 11 11 10 9 9 9 9 13 15 16 16 22 23 24 25 25 24 24 19 16 15 16 18 20 33 40 43 41 41 40 40 39 40 39 41 49 49 47 47 45 40 37 31 27 26 29 31 31 32 35 36 38 39 38 39 42 43 44 45 44 44 44 42
26 24 24 25 24 23 22 20 20 19 19 20 19 19 18 18 17 18 17 15 13 12 12 11 11 10 10 9 11 14 15 16 16 19 23 21 20 21 22 23 21 19 16 15 35 40 39 41 44 44 43 42 40 38 39 43 44 48 49 49 49 51 51 42 35 31 30 31 32 32 34 34 36 39 39 40 42 43 43 43 nan 42 44 45 nan
31 29 27 28 28 26 24 24 25 23 22 22 22 23 22 21 21 21 20 19 18 16 15 15 14 14 13 14 16 16 16 17 18 18 22 23 21 20 20 18 19 20 20 18 23 32 39 37 39 41 43 42 43 45 47 48 48 47 46 46 47 50 51 50 43 39 35 34 35 36 36 37 40 41 42 43 44 45 nan nan nan nan nan nan nan
33 31 30 31 32 31 30 29 28 27 25 24 24 24 24 23 23 23 23 24 22 20 19 19 20 20 21 20 20 22 21 21 20 21 22 24 24 23 23 23 25 27 24 26 29 31 36 42 42 39 41 41 41 41 42 44 46 47 46 45 47 47 47 44 41 40 39 39 40 40 42 44 45 nan nan nan nan nan nan nan nan nan nan nan nan
35 37 37 38 37 38 36 34 33 31 34 39 43 43 37 29 25 26 29 29 28 27 27 28 26 25 25 25 25 25 27 25 24 25 24 26 26 26 25 25 27 27 29 36 38 38 36 32 31 32 34 34 36 40 44 45 46 46 48 48 48 47 46 43 41 41 42 43 nan nan nan nan nan nan nan nan nan nan nan nan nan nan nan nan nan
34 36 37 38 41 42 40 38 37 39 41 40 42 44 48 49 48 39 35 47 49 48 45 34 34 31 27 29 33 30 31 34 43 39 33 32 30 34 40 42 39 38 43 41 35 34 34 33 32 32 33 35 39 43 44 45 46 47 47 48 50 50 48 47 45 46 47 nan nan nan nan nan nan nan nan nan nan nan nan nan nan nan nan nan nan
35 36 36 36 41 46 46 46 47 48 46 45 44 44 44 50 57 55 52 52 53 52 51 49 48 47 41 36 43 50 46 46 50 50 50 47 46 46 46 47 47 47 45 42 37 35 35 35 36 37 39 40 42 43 43 44 45 47 49 50 52 54 51 49 49 50 nan nan nan nan nan nan nan nan nan nan nan nan nan nan nan nan nan nan nan
38 38 36 36 39 45 53 55 53 52 51 49 49 47 49 47 51 57 58 60 60 59 56 55 55 55 56 53 48 46 51 53 55 56 56 55 53 51 50 50 49 48 44 44 43 40 40 41 41 41 41 42 41 42 43 44 45 47 49 50 51 53 53 51 nan nan nan nan nan nan nan nan nan nan nan nan nan nan nan nan nan nan nan nan nan
41 40 38 36 36 39 46 52 55 54 53 53 51 51 50 50 51 51 57 63 65 63 62 61 61 61 63 65 65 60 57 57 61 63 65 64 63 61 58 57 55 51 49 46 46 48 45 45 45 44 44 45 44 45 47 47 48 49 49 50 50 50 50 nan nan nan nan nan nan nan nan nan nan nan nan nan nan nan nan nan nan nan nan nan nan
42 40 39 39 39 38 39 43 47 49 49 49 49 49 52 54 54 53 53 52 57 62 65 64 63 69 69 70 69 68 67 66 66 67 69 69 69 67 64 59 61 59 55 51 51 52 51 50 48 48 48 48 49 48 49 51 51 52 52 52 52 52 nan nan nan nan nan nan nan nan nan nan nan nan nan nan nan nan nan nan nan nan nan nan nan
43 43 41 40 40 41 40 41 43 45 46 46 44 45 51 54 55 55 55 56 58 60 58 60 63 67 69 65 68 70 69 68 68 66 66 66 66 67 66 60 56 53 52 51 52 51 51 50 49 50 49 50 51 51 53 54 53 51 51 51 51 51 nan nan nan nan nan nan nan nan nan nan nan nan nan nan nan nan nan nan nan nan nan nan nan
43 42 42 42 42 43 43 43 44 45 46 47 47 48 49 51 54 55 57 58 60 60 60 59 60 61 69 68 69 68 68 67 66 65 60 56 55 62 63 60 56 51 50 50 51 52 52 51 50 50 51 52 53 54 55 54 51 49 49 50 51 nan nan nan nan nan nan nan nan nan nan nan nan nan nan nan nan nan nan nan nan nan nan nan nan
42 41 40 40 41 43 44 45 46 47 49 51 51 52 52 54 54 55 57 60 60 60 61 60 61 61 62 59 63 65 65 66 67 63 56 50 51 49 50 54 55 54 53 51 51 51 52 51 51 52 52 52 51 51 50 51 50 51 51 51 nan nan nan nan nan nan nan nan nan nan nan nan nan nan nan nan nan nan nan nan nan nan nan nan nan
44 41 38 39 41 44 45 46 46 49 48 48 48 50 52 53 54 56 58 58 59 60 60 59 59 58 58 56 55 53 56 59 63 59 52 51 48 45 43 47 50 52 52 50 48 48 49 49 50 51 51 50 50 49 nan nan nan nan nan nan nan nan nan nan nan nan nan nan nan nan nan nan nan nan nan nan nan nan nan nan nan nan nan nan nan
46 47 45 42 41 41 42 43 42 43 44 45 45 47 48 50 52 53 53 54 54 55 54 54 53 52 52 51 50 49 51 52 54 54 53 51 50 47 44 45 45 45 46 47 46 46 46 47 49 51 51 52 52 nan nan nan nan nan nan nan nan nan nan nan nan nan nan nan nan nan nan nan nan nan nan nan nan nan nan nan nan nan nan nan nan
46 42 40 41 40 41 41 41 41 40 41 42 42 43 45 46 48 49 49 50 50 49 49 49 49 48 48 48 49 50 53 53 53 53 53 51 49 47 46 46 47 48 48 49 48 48 49 50 51 52 nan nan nan nan nan nan nan nan nan nan nan nan nan nan nan nan nan nan nan nan nan nan nan nan nan nan nan nan nan nan nan nan nan nan nan
45 42 40 39 40 39 40 39 39 38 39 41 43 45 46 47 48 49 50 51 50 50 49 50 50 50 50 52 53 53 54 54 53 53 53 52 51 50 49 50 50 51 51 52 52 52 52 53 nan nan nan nan nan nan nan nan nan nan nan nan nan nan nan nan nan nan nan nan nan nan nan nan nan nan nan nan nan nan nan nan nan nan nan nan nan
46 44 43 41 41 40 40 40 39 38 38 39 42 45 47 49 50 51 51 50 50 50 51 52 53 52 53 59 56 58 56 54 53 53 52 51 50 49 49 49 50 51 52 52 52 53 54 nan nan nan nan nan nan nan nan nan nan nan nan nan nan nan nan nan nan nan nan nan nan nan nan nan nan nan nan nan nan nan nan nan nan nan nan nan nan
47 46 45 44 44 43 44 42 41 40 38 38 39 42 45 48 50 52 52 51 51 52 52 52 52 53 53 54 56 57 55 55 54 54 53 52 51 51 51 50 51 51 53 54 54 55 nan nan nan nan nan nan nan nan nan nan nan nan nan nan nan nan nan nan nan nan nan nan nan nan nan nan nan nan nan nan nan nan nan nan nan nan nan nan nan
50 50 50 50 47 47 46 45 45 44 42 42 42 41 42 44 47 50 51 52 52 52 52 52 52 53 53 52 53 54 54 54 55 56 56 55 53 53 54 53 54 54 55 56 nan nan nan nan nan nan nan nan nan nan nan nan nan nan nan nan nan nan nan nan nan nan nan nan nan nan nan nan nan nan nan nan nan nan nan nan nan nan nan nan nan
53 50 51 51 50 49 49 50 50 49 48 47 46 45 44 43 44 45 47 49 51 52 52 52 52 52 52 52 53 53 54 54 55 56 56 56 55 55 55 56 nan nan nan nan nan nan nan nan nan nan nan nan nan nan nan nan nan nan nan nan nan nan nan nan nan nan nan nan nan nan nan nan nan nan nan nan nan nan nan nan nan nan nan nan nan
52 50 50 52 54 53 52 52 53 53 52 52 51 51 50 49 46 44 44 45 47 49 51 53 54 54 54 54 54 54 54 55 55 55 nan nan nan nan nan nan nan nan nan nan nan nan nan nan nan nan nan nan nan nan nan nan nan nan nan nan nan nan nan nan nan nan nan nan nan nan nan nan nan nan nan nan nan nan nan nan nan nan nan nan nan
49 48 51 54 57 58 57 56 55 56 57 57 56 55 54 54 53 51 49 47 47 48 50 52 54 55 55 nan nan nan nan nan nan nan nan nan nan nan nan nan nan nan nan nan nan nan nan nan nan nan nan nan nan nan nan nan nan nan nan nan nan nan nan nan nan nan nan nan nan nan nan nan nan nan nan nan nan nan nan nan nan nan nan nan nan
52 53 56 59 60 60 59 59 59 59 59 59 59 58 57 nan nan nan nan nan nan nan nan nan nan nan nan nan nan nan nan nan nan nan nan nan nan nan nan nan nan nan nan nan nan nan nan nan nan nan nan nan nan nan nan nan nan nan nan nan nan nan nan nan nan nan nan nan nan nan nan nan nan nan nan nan nan nan nan nan nan nan nan nan nan
51 55 59 63 63 62 61 61 60 60 60 60 60 59 59 nan nan nan nan nan nan nan nan 53 55 nan nan nan nan nan nan nan nan nan nan nan nan nan nan nan nan nan nan nan nan nan nan nan nan nan nan nan nan nan nan nan nan nan nan nan nan nan nan nan nan nan nan nan nan nan nan nan nan nan nan nan nan nan nan nan nan nan nan nan nan
44 51 57 62 64 64 62 61 60 59 58 58 57 58 58 58 58 57 56 55 54 54 55 55 54 54 54 nan nan nan nan nan nan nan nan nan nan nan nan nan nan nan nan nan nan nan nan nan nan nan nan nan nan nan nan nan nan nan nan nan nan nan nan nan nan nan nan nan nan nan nan nan nan nan nan nan nan nan nan nan nan nan nan nan nan
42 45 50 57 60 60 58 57 57 58 58 57 57 57 59 59 59 59 57 56 56 56 56 55 55 54 nan nan nan nan nan nan nan nan nan nan nan nan nan nan nan nan nan nan nan nan nan nan nan nan nan nan nan nan nan nan nan nan nan nan nan nan nan nan nan nan nan nan nan nan nan nan nan nan nan nan nan nan nan nan nan nan nan nan nan
Wind_Direction
222 217 216 211 211 210 205 203 203 203 200 198 192 191 198 204 205 196 196 186 189 183 173 168 166 164 157 171 177 288 319 326 319 318 320 344 22 41 45 357 43 82 110 101 79 73 58 27 27 13 357 15 49 156 170 179 184 164 142 122 105 80 63 71 80 91 90 62 65 74 60 36 45 21 30 27 19 9 9 13 13 11 10 7 5
228 225 222 218 216 212 208 207 207 205 200 196 193 195 198 204 207 204 193 190 192 183 180 180 182 183 186 207 261 304 307 313 314 303 312 320 343 325 326 335 9 49 75 59 51 31 38 20 22 6 351 18 53 125 168 176 174 149 124 111 109 102 49 73 81 90 101 89 70 44 49 9 43 20 23 31 28 6 3 0 1 4 4 2 357
236 230 227 224 222 218 215 212 214 212 206 199 194 195 198 203 208 202 187 186 192 188 190 189 199 213 225 244 274 290 296 299 297 297 301 315 318 316 308 314 331 339 344 7 8 327 340 348 11 345 310 9 69 139 164 170 168 136 114 115 103 98 74 52 77 82 90 96 89 86 67 27 34 43 24 22 19 14 12 6 6 2 358 -0 357
239 238 233 228 227 224 221 218 221 218 210 200 196 197 201 205 209 201 192 188 193 199 199 202 214 229 243 257 269 277 283 286 286 295 307 313 313 315 308 303 301 299 300 308 301 302 324 328 342 324 300 28 134 156 167 169 162 143 116 110 103 91 87 61 53 67 73 85 82 72 65 46 40 26 23 20 22 16 13 12 7 9 7 2 1
239 242 241 235 230 225 224 223 225 225 216 207 202 204 205 207 210 205 197 190 194 204 208 213 222 236 245 258 265 271 279 287 294 301 304 309 315 311 304 298 296 294 288 271 267 292 311 324 298 264 261 192 149 151 158 139 142 127 113 112 106 96 86 74 61 46 53 59 65 53 49 41 30 22 19 26 24 16 12 12 10 6 3 4 359
238 241 242 239 231 232 228 225 227 230 225 216 211 210 209 210 211 209 201 197 200 204 212 220 228 239 245 252 259 266 275 286 299 306 314 313 306 302 295 288 285 282 277 273 279 293 304 308 265 245 238 180 146 154 156 137 134 115 104 103 98 84 73 71 60 51 50 54 48 51 27 29 24 10 7 6 14 16 15 14 3 356 354 356 356
236 239 243 242 234 233 232 230 228 230 229 224 219 216 213 211 211 209 207 202 204 206 213 224 232 239 243 245 253 265 278 291 296 305 311 307 302 298 292 285 277 268 265 273 281 293 305 290 235 233 230 163 137 144 147 137 132 118 105 98 87 72 70 72 61 58 60 60 51 41 35 19 9 13 1 355 359 360 5 9 5 349 343 346 346
240 240 239 238 235 235 232 230 228 229 229 228 225 221 217 214 212 210 210 207 204 207 215 226 233 238 240 242 250 262 279 291 299 302 304 304 300 299 294 288 280 269 263 266 273 285 295 281 212 210 213 157 139 146 144 141 136 118 111 101 89 79 78 72 74 67 60 53 43 41 30 15 358 356 350 346 350 349 347 354 1 349 344 342 343
243 242 239 236 233 233 231 229 229 231 233 233 232 228 224 220 217 215 214 210 208 209 214 221 230 237 240 243 252 265 278 289 288 295 300 306 305 304 302 300 293 276 264 259 264 273 270 240 205 187 182 150 136 151 150 155 145 123 110 103 93 81 76 70 70 63 65 62 60 44 32 18 2 355 352 344 341 341 332 333 341 343 345 354 359
246 245 241 235 230 232 231 229 231 234 236 236 236 234 228 225 222 220 216 214 212 213 214 220 227 236 242 249 257 263 271 271 285 308 306 301 306 302 300 300 296 284 266 253 253 261 251 217 202 158 168 156 151 130 101 84 68 79 89 62 62 62 54 51 45 42 39 40 41 39 38 32 2 348 346 340 332 326 326 325 334 341 342 356 5
249 248 242 236 232 232 230 228 230 234 235 234 236 236 233 228 224 220 216 216 215 217 219 222 227 231 239 248 260 265 265 266 295 303 315 322 310 305 305 301 296 288 269 251 243 239 223 207 188 200 236 197 160 96 83 51 45 48 50 45 37 41 52 43 27 20 25 32 30 25 27 30 11 345 333 327 325 324 316 309 319 336 343 354 10
255 248 242 237 235 234 230 229 229 231 233 236 237 237 233 230 226 223 221 220 221 221 221 224 226 228 233 243 256 260 261 278 295 306 316 325 321 313 306 299 294 286 266 248 237 228 211 203 205 206 206 209 204 220 356 39 47 47 39 28 20 22 17 24 26 21 19 22 21 13 6 6 2 330 322 325 325 320 311 301 324 353 4 8 1
254 247 242 239 237 234 232 231 231 232 234 235 234 233 232 230 228 226 224 223 223 223 222 225 228 231 234 243 250 254 254 280 298 308 316 321 327 323 310 303 296 285 266 251 238 226 215 213 209 220 226 268 264 232 220 256 350 33 41 25 6 358 5 15 18 14 17 26 28 21 1 355 347 327 326 329 324 324 313 322 350 16 19 11 1
250 246 241 238 237 236 234 233 232 232 234 234 232 231 230 227 225 223 222 226 226 225 227 228 229 233 238 243 244 244 255 275 300 309 312 317 321 315 312 315 304 283 262 247 237 226 220 223 231 238 248 259 267 276 274 283 279 328 355 343 335 341 352 5 11 16 9 6 17 22 3 342 336 328 328 328 333 332 325 344 7 14 15 16 4
244 245 242 240 238 236 236 235 235 235 236 236 233 229 226 223 224 224 226 229 230 230 230 229 229 234 241 246 242 243 251 276 290 305 309 312 314 308 301 305 297 272 249 237 232 227 229 242 254 258 263 269 271 282 286 288 294 304 52 55 339 322 328 340 346 346 345 346 355 2 358 345 340 335 328 332 336 330 344 3 7 6 12 17 13
243 243 240 242 242 241 241 239 238 239 241 239 235 229 225 225 227 229 229 229 229 230 230 229 232 239 245 248 245 243 247 277 288 298 305 306 304 292 294 298 299 275 244 232 232 240 249 261 262 268 275 280 287 303 300 290 291 295 325 3 318 312 321 338 343 343 343 339 342 350 347 343 337 336 336 331 324 340 354 355 353 357 5 12 19
243 243 244 246 246 245 244 243 243 244 243 241 235 229 226 228 229 232 233 232 231 231 230 231 233 237 243 247 248 244 244 270 287 294 297 300 292 287 292 292 290 284 251 239 242 253 261 267 276 272 278 278 291 303 307 303 297 303 303 316 308 304 308 308 331 346 348 347 350 349 349 348 346 342 337 335 339 348 349 351 353 349 358 4 10
243 243 245 247 246 245 243 245 245 244 241 238 232 227 226 227 233 236 236 233 227 224 225 226 229 232 237 243 248 248 249 266 285 290 296 298 298 290 287 290 291 282 259 252 255 257 266 291 286 281 277 276 289 302 306 300 298 304 305 308 318 312 302 300 302 317 338 345 346 344 343 345 339 331 337 345 350 345 343 352 349 344 352 355 2
243 243 244 244 242 241 241 242 242 241 236 232 229 228 229 232 234 235 232 227 221 220 223 225 229 233 236 240 251 256 250 263 284 291 297 299 297 285 289 291 294 284 264 254 261 263 263 279 305 299 282 273 286 295 302 300 300 302 303 303 310 313 299 296 306 310 310 315 317 318 320 330 338 341 345 351 353 349 343 346 343 344 350 354 354
243 241 240 240 240 239 237 238 237 236 234 232 230 229 230 232 234 233 227 223 221 222 227 230 235 237 240 246 250 261 260 258 272 291 293 297 303 287 285 291 296 285 267 259 257 266 272 271 283 303 307 300 291 291 295 301 300 297 294 297 303 306 292 296 304 305 305 307 309 310 315 325 334 337 339 338 338 340 340 339 340 342 346 350 350
240 239 238 237 238 239 234 234 237 234 233 233 233 232 231 232 231 228 225 224 224 226 232 234 237 241 244 251 255 263 264 267 271 287 290 294 299 298 284 295 290 277 269 265 266 267 269 272 268 288 303 305 301 299 294 295 294 290 292 292 300 291 275 286 296 304 308 304 304 315 325 332 334 335 336 334 330 330 332 335 336 340 345 347 347
243 241 240 238 236 237 235 231 233 230 230 231 231 228 226 227 226 228 225 228 232 235 240 242 244 246 249 254 257 260 267 277 268 283 293 295 298 309 292 292 286 277 275 270 270 269 271 272 272 282 295 295 295 290 291 291 294 287 288 296 299 288 282 285 287 294 296 300 311 322 328 327 326 326 327 326 324 325 326 330 335 338 339 342 347
245 241 237 233 230 232 231 235 232 227 228 229 230 228 227 228 229 233 237 238 242 247 249 249 250 251 250 250 251 257 263 269 291 281 294 301 305 310 317 301 292 282 277 274 274 272 272 275 278 283 286 290 289 289 288 290 286 288 296 295 295 287 282 293 299 294 298 309 316 322 320 318 318 319 318 318 318 317 319 324 329 332 336 339 344
243 240 234 229 227 226 228 229 227 224 225 225 224 222 223 225 229 233 242 245 244 245 242 246 244 246 250 248 255 263 271 274 287 303 294 306 307 315 320 322 305 286 281 271 268 268 271 276 273 275 280 281 283 286 287 289 286 292 294 293 294 284 286 290 288 296 306 310 311 310 306 304 307 309 310 311 313 313 316 322 327 331 331 332 337
239 234 229 224 221 221 221 219 218 216 216 219 219 219 220 224 224 226 232 239 239 237 238 243 249 250 253 258 266 276 280 284 283 297 313 308 315 317 320 322 324 310 282 267 266 263 261 265 270 273 277 280 283 282 278 283 280 282 289 294 293 289 282 273 274 281 290 295 293 291 291 295 300 305 305 307 309 311 315 319 323 326 327 329 333
232 229 224 220 220 221 217 213 212 212 214 213 216 218 223 226 226 229 236 239 239 241 241 246 248 249 250 259 270 276 280 278 282 283 293 305 307 314 318 318 321 321 309 273 253 256 264 268 270 272 274 278 280 280 279 277 278 283 288 290 288 289 289 291 292 296 294 289 288 289 292 296 300 299 301 305 307 309 312 316 nan 319 319 320 nan
228 225 221 218 217 215 212 209 211 214 217 219 221 223 225 227 230 233 239 241 241 240 242 246 248 247 248 257 263 267 273 274 275 277 279 281 285 288 289 286 293 282 274 268 266 264 264 268 269 270 269 272 271 273 276 278 278 279 281 283 286 289 294 295 296 292 291 292 292 292 293 295 296 297 298 301 305 309 nan nan nan nan nan nan nan
228 222 222 221 219 216 213 216 219 219 224 226 227 227 230 232 234 237 241 243 243 244 244 245 250 253 255 256 258 261 267 271 271 272 273 275 278 279 280 277 276 275 274 269 268 270 271 268 271 272 273 275 278 280 281 281 281 282 282 283 284 287 291 297 296 297 295 293 292 292 293 294 295 nan nan nan nan nan nan nan nan nan nan nan nan
236 229 222 219 218 219 218 220 222 224 226 225 221 219 219 224 231 235 236 238 242 246 249 247 250 253 256 257 260 261 262 267 269 272 270 272 276 274 275 275 274 274 273 270 269 270 272 276 277 278 279 282 283 282 280 279 277 276 280 282 283 283 287 293 298 299 296 293 nan nan nan nan nan nan nan nan nan nan nan nan nan nan nan nan nan
247 244 234 224 222 223 222 224 227 230 233 232 231 229 229 227 222 223 232 227 226 226 230 239 240 246 254 254 250 253 254 254 246 256 260 260 260 256 251 254 259 262 271 274 271 272 275 277 278 280 281 282 282 279 278 278 279 279 279 279 282 285 288 290 294 297 296 nan nan nan nan nan nan nan nan nan nan nan nan nan nan nan nan nan nan
241 246 244 236 231 227 225 226 229 231 236 237 234 234 233 226 225 228 232 234 234 233 234 232 232 234 240 252 252 249 251 250 252 254 256 260 261 262 264 266 267 270 275 273 273 275 276 276 275 272 270 272 273 275 278 282 285 287 288 289 287 286 287 286 286 292 nan nan nan nan nan nan nan nan nan nan nan nan nan nan nan nan nan nan nan
236 238 241 238 237 232 228 227 228 232 236 239 236 233 232 233 230 228 233 238 239 239 239 240 241 243 243 246 253 256 251 253 257 258 260 261 262 261 262 265 270 275 278 272 269 270 273 273 272 271 273 274 277 279 280 281 283 285 289 290 288 286 283 281 nan nan nan nan nan nan nan nan nan nan nan nan nan nan nan nan nan nan nan nan nan
235 239 244 245 244 240 235 232 231 233 237 241 241 237 236 236 236 236 234 239 242 242 242 244 248 250 252 253 253 257 259 259 261 262 263 263 261 259 257 256 257 260 261 261 268 269 266 266 269 270 271 274 275 277 279 281 284 285 287 290 292 292 288 nan nan nan nan nan nan nan nan nan nan nan nan nan nan nan nan nan nan nan nan nan nan
235 239 245 247 246 246 243 240 240 242 245 248 247 244 241 240 240 241 242 243 242 241 242 242 249 255 255 258 260 261 260 260 261 264 265 265 266 265 262 258 256 256 261 264 265 267 268 269 270 273 274 275 277 279 281 284 285 285 287 288 287 289 nan nan nan nan nan nan nan nan nan nan nan nan nan nan nan nan nan nan nan nan nan nan nan
236 240 246 246 244 245 245 245 244 246 250 254 254 251 245 244 245 244 244 245 246 247 248 247 246 254 261 261 264 265 265 264 263 261 260 262 264 266 264 259 257 258 259 262 266 267 267 268 270 272 275 278 281 282 283 284 285 286 287 287 287 287 nan nan nan nan nan nan nan nan nan nan nan nan nan nan nan nan nan nan nan nan nan nan nan
233 236 238 240 241 242 243 245 246 249 252 253 253 254 252 250 249 250 251 253 254 255 254 253 257 256 261 264 267 266 264 263 262 261 261 260 262 261 261 262 261 260 261 263 265 268 270 271 272 273 274 276 277 278 279 281 282 283 284 285 286 nan nan nan nan nan nan nan nan nan nan nan nan nan nan nan nan nan nan nan nan nan nan nan nan
230 232 233 236 239 240 241 243 246 248 248 247 251 253 251 251 253 254 256 258 259 260 261 263 263 263 261 260 261 260 260 260 259 257 257 258 257 256 260 264 266 265 265 265 266 267 270 272 274 275 275 275 275 276 278 279 280 281 282 282 nan nan nan nan nan nan nan nan nan nan nan nan nan nan nan nan nan nan nan nan nan nan nan nan nan
227 228 232 234 236 236 239 241 244 247 248 247 248 250 251 252 254 256 259 260 262 264 266 266 266 266 265 261 258 259 260 261 262 261 259 255 256 261 264 266 266 266 268 269 269 269 269 271 272 274 275 276 277 278 nan nan nan nan nan nan nan nan nan nan nan nan nan nan nan nan nan nan nan nan nan nan nan nan nan nan nan nan nan nan nan
228 224 226 231 234 237 239 242 243 245 247 249 250 251 252 254 256 256 256 260 261 263 264 264 263 262 260 260 261 263 264 264 266 266 265 263 263 265 265 263 263 264 265 267 270 270 270 271 271 273 275 276 276 nan nan nan nan nan nan nan nan nan nan nan nan nan nan nan nan nan nan nan nan nan nan nan nan nan nan nan nan nan nan nan nan
230 232 231 233 236 234 237 240 243 246 247 248 248 251 253 256 257 258 257 255 255 257 259 259 258 258 260 265 267 267 267 267 267 268 268 268 267 266 265 263 263 264 265 266 267 268 269 269 270 271 nan nan nan nan nan nan nan nan nan nan nan nan nan nan nan nan nan nan nan nan nan nan nan nan nan nan nan nan nan nan nan nan nan nan nan
233 234 232 234 237 237 236 238 239 243 247 248 252 253 254 257 257 256 256 257 257 257 256 256 255 256 256 257 260 264 266 266 266 266 266 267 266 265 265 264 263 264 266 267 267 268 269 269 nan nan nan nan nan nan nan nan nan nan nan nan nan nan nan nan nan nan nan nan nan nan nan nan nan nan nan nan nan nan nan nan nan nan nan nan nan
237 239 239 240 237 237 238 237 238 242 246 249 250 251 251 249 252 254 254 255 256 257 257 257 257 257 255 257 258 261 262 262 263 264 264 264 264 265 264 264 264 265 266 266 266 267 268 nan nan nan nan nan nan nan nan nan nan nan nan nan nan nan nan nan nan nan nan nan nan nan nan nan nan nan nan nan nan nan nan nan nan nan nan nan nan
239 241 242 242 242 242 239 238 238 238 241 246 252 251 252 252 252 253 253 253 253 254 256 257 257 258 256 254 257 258 261 262 262 262 262 263 264 264 264 264 266 266 266 266 266 267 nan nan nan nan nan nan nan nan nan nan nan nan nan nan nan nan nan nan nan nan nan nan nan nan nan nan nan nan nan nan nan nan nan nan nan nan nan nan nan
236 240 242 244 245 244 243 242 239 242 246 249 252 256 257 255 254 254 253 253 253 253 253 255 257 258 258 256 257 259 260 261 262 263 265 265 264 265 265 266 266 267 266 266 nan nan nan nan nan nan nan nan nan nan nan nan nan nan nan nan nan nan nan nan nan nan nan nan nan nan nan nan nan nan nan nan nan nan nan nan nan nan nan nan nan
234 239 243 245 246 245 243 242 243 245 249 251 253 256 256 257 256 256 256 255 255 255 256 256 257 258 257 257 258 260 261 261 263 264 264 265 265 266 266 267 nan nan nan nan nan nan nan nan nan nan nan nan nan nan nan nan nan nan nan nan nan nan nan nan nan nan nan nan nan nan nan nan nan nan nan nan nan nan nan nan nan nan nan nan nan
233 237 242 246 249 249 247 245 245 247 250 253 256 257 258 257 257 258 259 259 259 259 258 258 258 259 259 260 260 261 262 263 263 263 nan nan nan nan nan nan nan nan nan nan nan nan nan nan nan nan nan nan nan nan nan nan nan nan nan nan nan nan nan nan nan nan nan nan nan nan nan nan nan nan nan nan nan nan nan nan nan nan nan nan nan
234 241 245 249 251 253 252 251 248 248 251 254 257 259 260 259 258 258 260 263 264 263 261 260 260 260 261 nan nan nan nan nan nan nan nan nan nan nan nan nan nan nan nan nan nan nan nan nan nan nan nan nan nan nan nan nan nan nan nan nan nan nan nan nan nan nan nan nan nan nan nan nan nan nan nan nan nan nan nan nan nan nan nan nan nan
234 241 245 247 250 252 255 254 253 252 252 254 257 259 260 nan nan nan nan nan nan nan nan nan nan nan nan nan nan nan nan nan nan nan nan nan nan nan nan nan nan nan nan nan nan nan nan nan nan nan nan nan nan nan nan nan nan nan nan nan nan nan nan nan nan nan nan nan nan nan nan nan nan nan nan nan nan nan nan nan nan nan nan nan nan
238 241 244 245 246 249 251 253 254 254 254 255 257 259 260 nan nan nan nan nan nan nan nan 262 261 nan nan nan nan nan nan nan nan nan nan nan nan nan nan nan nan nan nan nan nan nan nan nan nan nan nan nan nan nan nan nan nan nan nan nan nan nan nan nan nan nan nan nan nan nan nan nan nan nan nan nan nan nan nan nan nan nan nan nan nan
244 242 242 243 243 244 245 247 249 251 253 254 255 256 257 257 257 258 259 260 260 259 258 257 256 257 258 nan nan nan nan nan nan nan nan nan nan nan nan nan nan nan nan nan nan nan nan nan nan nan nan nan nan nan nan nan nan nan nan nan nan nan nan nan nan nan nan nan nan nan nan nan nan nan nan nan nan nan nan nan nan nan nan nan nan
250 245 244 243 243 243 244 245 247 247 247 248 249 251 253 254 255 256 257 257 257 256 255 253 254 254 nan nan nan nan nan nan nan nan nan nan nan nan nan nan nan nan nan nan nan nan nan nan nan nan nan nan nan nan nan nan nan nan nan nan nan nan nan nan nan nan nan nan nan nan nan nan nan nan nan nan nan nan nan nan nan nan nan nan nan